| time (UTC) | temp F | wind direction | speed MPH | gust MPH | rain 1hr in | rain 24hr in | rain mn in | humidity % | barometer mb |
| 20260507180011 | 64 | 114 | 3.0 | 14.0 | 0.00 | 0.00 | 0.00 | 40 | 1016.2 |
| 20260507174510 | 63 | 245 | 5.0 | 12.0 | 0.00 | 0.00 | 0.00 | 40 | 1016.6 |
| 20260507173004 | 63 | 154 | 4.0 | 10.0 | 0.00 | 0.00 | 0.00 | 42 | 1016.7 |
| 20260507171501 | 61 | 286 | 3.0 | 14.0 | 0.00 | 0.00 | 0.00 | 43 | 1016.8 |
| 20260507170104 | 62 | 272 | 6.0 | 16.0 | 0.00 | 0.00 | 0.00 | 47 | 1017.1 |
| 20260507164607 | 61 | 193 | 4.0 | 14.0 | 0.00 | 0.00 | 0.00 | 42 | 1017.4 |
| 20260507163103 | 61 | 271 | 4.0 | 13.0 | 0.00 | 0.00 | 0.00 | 43 | 1017.4 |
| 20260507161555 | 60 | 182 | 4.0 | 11.0 | 0.00 | 0.00 | 0.00 | 47 | 1017.6 |
| 20260507160053 | 60 | 209 | 5.0 | 9.0 | 0.00 | 0.00 | 0.00 | 48 | 1017.5 |
| 20260507154552 | 60 | 208 | 3.0 | 9.0 | 0.00 | 0.00 | 0.00 | 49 | 1017.9 |
| 20260507153046 | 59 | 142 | 5.0 | 10.0 | 0.00 | 0.00 | 0.00 | 49 | 1017.8 |
| 20260507151543 | 58 | 214 | 4.0 | 8.0 | 0.00 | 0.00 | 0.00 | 49 | 1018.0 |
| 20260507150043 | 57 | 190 | 5.0 | 8.0 | 0.00 | 0.00 | 0.00 | 51 | 1018.1 |
| 20260507144538 | 56 | 269 | 4.0 | 9.0 | 0.00 | 0.00 | 0.00 | 52 | 1018.3 |
| 20260507143038 | 56 | 219 | 5.0 | 9.0 | 0.00 | 0.00 | 0.00 | 59 | 1018.4 |
| 20260507141532 | 55 | 118 | 4.0 | 9.0 | 0.00 | 0.00 | 0.00 | 61 | 1018.5 |
| 20260507140030 | 54 | 207 | 5.0 | 9.0 | 0.00 | 0.00 | 0.00 | 57 | 1018.5 |
| 20260507134530 | 53 | 211 | 3.0 | 6.0 | 0.00 | 0.00 | 0.00 | 64 | 1018.6 |
| 20260507133024 | 51 | 217 | 3.0 | 8.0 | 0.00 | 0.00 | 0.00 | 68 | 1018.5 |
| 20260507131523 | 50 | 240 | 2.0 | 6.0 | 0.00 | 0.00 | 0.00 | 69 | 1018.6 |
| 20260507130027 | 48 | 238 | 3.0 | 5.0 | 0.00 | 0.00 | 0.00 | 74 | 1018.5 |
| 20260507124519 | 47 | 174 | 2.0 | 6.0 | 0.00 | 0.00 | 0.00 | 78 | 1018.5 |
| 20260507123009 | 45 | 218 | 1.0 | 3.0 | 0.00 | 0.00 | 0.00 | 82 | 1018.2 |
| 20260507121505 | 43 | 217 | 1.0 | 3.0 | 0.00 | 0.00 | 0.00 | 85 | 1018.3 |
| 20260507120005 | 41 | 207 | 1.0 | 2.0 | 0.00 | 0.00 | 0.00 | 88 | 1018.0 |
| 20260507114504 | 40 | 226 | 1.0 | 3.0 | 0.00 | 0.00 | 0.00 | 89 | 1017.8 |
| 20260507113003 | 40 | 206 | 1.0 | 3.0 | 0.00 | 0.00 | 0.00 | 90 | 1017.7 |
| 20260507111518 | 38 | 205 | 0.0 | 2.0 | 0.00 | 0.00 | 0.00 | 92 | 1017.7 |
| 20260507110018 | 38 | 179 | 1.0 | 2.0 | 0.00 | 0.01 | 0.00 | 93 | 1017.6 |
| 20260507104518 | 38 | 143 | 0.0 | 1.0 | 0.00 | 0.01 | 0.00 | 92 | 1017.5 |
| 20260507103027 | 38 | 133 | 0.0 | 1.0 | 0.00 | 0.01 | 0.00 | 92 | 1017.5 |
| 20260507101517 | 38 | 137 | 0.0 | 1.0 | 0.00 | 0.01 | 0.00 | 93 | 1017.6 |
| 20260507100024 | 39 | 137 | 0.0 | 1.0 | 0.00 | 0.03 | 0.00 | 93 | 1017.6 |
| 20260507094512 | 39 | 346 | 0.0 | 1.0 | 0.00 | 0.03 | 0.00 | 93 | 1017.4 |
| 20260507093010 | 39 | 346 | 0.0 | 1.0 | 0.00 | 0.03 | 0.00 | 93 | 1017.4 |
| 20260507091509 | 39 | 338 | 0.0 | 1.0 | 0.00 | 0.03 | 0.00 | 94 | 1017.4 |
| 20260507090007 | 38 | 338 | 0.0 | 1.0 | 0.00 | 0.03 | 0.00 | 93 | 1017.6 |
| 20260507084506 | 38 | 338 | 0.0 | 1.0 | 0.00 | 0.03 | 0.00 | 93 | 1017.6 |
| 20260507083006 | 38 | 338 | 0.0 | 1.0 | 0.00 | 0.03 | 0.00 | 92 | 1017.7 |
| 20260507081503 | 38 | 338 | 0.0 | 0.0 | 0.00 | 0.03 | 0.00 | 92 | 1017.8 |
| 20260507080002 | 38 | 338 | 0.0 | 0.0 | 0.00 | 0.04 | 0.00 | 91 | 1018.1 |
| 20260507074600 | 38 | 338 | 0.0 | 0.0 | 0.00 | 0.04 | 0.00 | 91 | 1017.9 |
| 20260507073058 | 39 | 338 | 0.0 | 0.0 | 0.00 | 0.04 | 0.00 | 89 | 1017.9 |
| 20260507071610 | 39 | 338 | 0.0 | 0.0 | 0.00 | 0.04 | 0.00 | 89 | 1017.9 |
| 20260507070056 | 40 | 338 | 0.0 | 0.0 | 0.00 | 0.04 | 0.00 | 88 | 1017.8 |
| 20260507064553 | 40 | 338 | 0.0 | 0.0 | 0.00 | 0.05 | 0.00 | 87 | 1017.9 |
| 20260507063049 | 40 | 338 | 0.0 | 0.0 | 0.00 | 0.05 | 0.00 | 84 | 1018.2 |
| 20260507061550 | 41 | 338 | 0.0 | 0.0 | 0.00 | 0.05 | 0.00 | 84 | 1018.3 |
| 20260507060046 | 42 | 338 | 0.0 | 0.0 | 0.00 | 0.05 | 0.00 | 81 | 1018.2 |
| 20260507054545 | 42 | 338 | 0.0 | 0.0 | 0.00 | 0.09 | 0.00 | 80 | 1018.2 |
| 20260507053110 | 43 | 338 | 0.0 | 1.0 | 0.00 | 0.09 | 0.00 | 78 | 1018.1 |
| 20260507051544 | 43 | 338 | 0.0 | 1.0 | 0.00 | 0.09 | 0.00 | 77 | 1018.1 |
| 20260507050040 | 42 | 338 | 0.0 | 0.0 | 0.00 | 0.10 | 0.09 | 83 | 1017.8 |
| 20260507044536 | 43 | 338 | 0.0 | 0.0 | 0.00 | 0.10 | 0.09 | 79 | 1017.6 |
| 20260507043037 | 45 | 338 | 0.0 | 1.0 | 0.00 | 0.10 | 0.09 | 74 | 1017.6 |
| 20260507041535 | 45 | 338 | 0.0 | 1.0 | 0.00 | 0.10 | 0.09 | 75 | 1017.7 |
| 20260507040034 | 43 | 338 | 0.0 | 1.0 | 0.00 | 0.10 | 0.09 | 80 | 1017.6 |
| 20260507034538 | 42 | 338 | 0.0 | 0.0 | 0.00 | 0.10 | 0.09 | 84 | 1017.6 |
| 20260507033040 | 42 | 338 | 0.0 | 0.0 | 0.00 | 0.10 | 0.09 | 82 | 1017.7 |
| 20260507031529 | 43 | 338 | 0.0 | 0.0 | 0.00 | 0.10 | 0.09 | 82 | 1017.8 |
| 20260507030028 | 44 | 338 | 0.0 | 0.0 | 0.00 | 0.11 | 0.09 | 79 | 1017.7 |
| 20260507024526 | 45 | 338 | 0.0 | 0.0 | 0.00 | 0.11 | 0.09 | 76 | 1017.7 |
| 20260507023027 | 45 | 338 | 0.0 | 0.0 | 0.00 | 0.11 | 0.09 | 73 | 1017.7 |
| 20260507021523 | 47 | 338 | 0.0 | 0.0 | 0.00 | 0.11 | 0.09 | 69 | 1017.6 |
| 20260507020023 | 49 | 338 | 0.0 | 0.0 | 0.00 | 0.13 | 0.09 | 64 | 1017.6 |
| 20260507014522 | 50 | 320 | 0.0 | 3.0 | 0.00 | 0.13 | 0.09 | 60 | 1017.2 |
| 20260507013022 | 50 | 340 | 0.0 | 0.0 | 0.00 | 0.13 | 0.09 | 61 | 1017.0 |
| 20260507011522 | 52 | 340 | 0.0 | 1.0 | 0.00 | 0.13 | 0.09 | 55 | 1016.8 |
| 20260507010025 | 54 | 332 | 1.0 | 3.0 | 0.00 | 0.16 | 0.09 | 53 | 1016.4 |
| 20260507004529 | 56 | 323 | 0.0 | 3.0 | 0.00 | 0.16 | 0.09 | 49 | 1016.3 |
| 20260507003019 | 57 | 328 | 1.0 | 6.0 | 0.00 | 0.16 | 0.09 | 46 | 1016.3 |
| 20260507001520 | 58 | 303 | 3.0 | 6.0 | 0.00 | 0.16 | 0.09 | 45 | 1016.4 |
| 20260507000018 | 59 | 328 | 5.0 | 9.0 | 0.00 | 0.27 | 0.09 | 42 | 1016.3 |
| 20260506234518 | 59 | 326 | 6.0 | 10.0 | 0.00 | 0.27 | 0.09 | 41 | 1016.2 |
| 20260506233017 | 59 | 349 | 2.0 | 7.0 | 0.00 | 0.27 | 0.09 | 44 | 1016.2 |
| 20260506231516 | 59 | 326 | 1.0 | 6.0 | 0.00 | 0.27 | 0.09 | 45 | 1016.3 |
| 20260506230015 | 61 | 125 | 0.0 | 4.0 | 0.00 | 0.28 | 0.09 | 46 | 1016.3 |
| 20260506224516 | 59 | 339 | 4.0 | 11.0 | 0.00 | 0.28 | 0.09 | 46 | 1016.4 |
| 20260506223017 | 59 | 1 | 1.0 | 5.0 | 0.00 | 0.28 | 0.09 | 47 | 1016.4 |
| 20260506221515 | 59 | 354 | 2.0 | 6.0 | 0.00 | 0.28 | 0.09 | 45 | 1016.5 |
| 20260506220029 | 58 | 320 | 3.0 | 7.0 | 0.00 | 0.28 | 0.09 | 43 | 1016.5 |
| 20260506214514 | 60 | 336 | 3.0 | 10.0 | 0.00 | 0.28 | 0.09 | 43 | 1016.5 |
| 20260506213012 | 62 | 316 | 1.0 | 8.0 | 0.00 | 0.28 | 0.09 | 40 | 1016.5 |
| 20260506211510 | 60 | 328 | 4.0 | 8.0 | 0.00 | 0.28 | 0.09 | 43 | 1016.6 |
| 20260506210013 | 59 | 35 | 2.0 | 8.0 | 0.00 | 0.28 | 0.09 | 46 | 1016.6 |
| 20260506204509 | 61 | 313 | 3.0 | 10.0 | 0.00 | 0.28 | 0.09 | 46 | 1017.0 |
| 20260506203008 | 60 | 335 | 4.0 | 7.0 | 0.00 | 0.28 | 0.09 | 43 | 1016.9 |
| 20260506201505 | 60 | 4 | 2.0 | 9.0 | 0.00 | 0.28 | 0.09 | 50 | 1017.2 |
| 20260506200005 | 59 | 301 | 4.0 | 8.0 | 0.00 | 0.34 | 0.09 | 47 | 1017.2 |
| 20260506194504 | 59 | 293 | 2.0 | 8.0 | 0.00 | 0.34 | 0.09 | 46 | 1017.2 |
| 20260506193003 | 58 | 351 | 3.0 | 9.0 | 0.00 | 0.34 | 0.09 | 48 | 1017.3 |
| 20260506191503 | 59 | 299 | 3.0 | 8.0 | 0.00 | 0.34 | 0.09 | 48 | 1017.4 |
| 20260506190005 | 58 | 28 | 4.0 | 12.0 | 0.00 | 0.38 | 0.09 | 50 | 1017.4 |
| 20260506184502 | 59 | 310 | 8.0 | 12.0 | 0.00 | 0.38 | 0.09 | 46 | 1017.1 |
| 20260506183005 | 58 | 340 | 5.0 | 12.0 | 0.00 | 0.38 | 0.09 | 47 | 1017.1 |
| 20260506181604 | 59 | 283 | 5.0 | 11.0 | 0.00 | 0.38 | 0.09 | 45 | 1017.4 |